[[{"header":{"parameterUnit":"m.s-1","parameterCategory":1,"la1":30.2991,"la2":30.254,"lo1":-89.0895,"lo2":-89.0444,"dy":0.0017,"dx":0.0017,"nx":28,"ny":28,"refTime":"2023-10-24T03:00:00:Z","depth":0,"parameterNumber":2,"parameterNumberName":"U-component_of_WINDS"},"data":[0,0,0,0,0,0,0,0,0,0,0,0,0,0,0,0,0,0,0,0,0,0,0,0,0,0,0,0,0,0,0,0,0,0,0,0,0,0,0,0,0,0,0,0,0,0,0,0,0,0,0,0,0,0,0,0,0,0,-6.6331,-6.6332,0,-6.6407,-6.6407,-6.6408,-6.6324,-6.6321,-6.6317,-6.6314,-6.6389,-6.6394,-6.6399,0,0,0,0,0,0,0,0,0,0,0,0,0,-6.6113,-6.6117,-6.6331,-6.6332,-6.6333,-6.6406,-6.6408,-6.6409,-6.6324,-6.632,-6.6317,-6.6313,-6.6388,-6.6394,-6.64,0,0,0,0,0,0,0,0,0,0,0,0,0,-6.62,-6.6119,-6.6331,-6.63,-6.6298,-6.6406,-6.6408,-6.6409,-6.6325,-6.632,-6.6316,-6.6311,-6.6386,-6.6393,-6.6401,-6.6543,0,0,-6.6423,-6.6427,0,0,0,0,0,0,0,0,-6.6195,-6.6208,-6.6303,-6.6302,-6.63,-6.6351,-6.6358,-6.6454,-6.6326,-6.6315,-6.6314,-6.6309,-6.638,-6.6388,-6.6413,-6.6546,-6.6549,-6.6424,-6.6429,-6.6432,-6.6434,0,0,0,0,0,0,0,-6.6189,-6.6204,-6.6361,-6.6305,-6.6303,-6.6282,-6.6289,-6.6376,-6.6373,-6.6315,-6.6309,-6.632,-6.6378,-6.6406,-6.6414,-6.655,-6.6424,-6.643,-6.6435,-6.6438,-6.6806,-6.6811,0,0,0,0,0,0,-6.6187,-6.62,-6.6358,-6.6363,-6.6235,-6.629,-6.6298,-6.6339,-6.6372,-6.6373,-6.6324,-6.6315,-6.6395,-6.6405,-6.6416,-6.6584,-6.6432,-6.6439,-6.6443,-6.68,-6.6807,-6.6812,0,0,0,0,0,0,-6.6183,-6.6202,-6.6355,-6.628,-6.6298,-6.6299,-6.6346,-6.6343,-6.637,-6.6379,-6.6378,-6.6352,-6.6392,-6.6406,-6.6512,-6.6585,-6.6442,-6.6449,-6.6794,-6.6802,-6.681,-6.6922,0,0,0,0,0,0,-6.6177,-6.6201,-6.6254,-6.6282,-6.6302,-6.645,-6.6351,-6.6348,-6.6384,-6.6374,-6.6405,-6.6405,-6.6389,-6.6502,-6.652,-6.6593,-6.6455,-6.6787,-6.6798,-6.6807,-6.6911,-6.6932,-6.695,0,0,0,0,0,-6.6169,-6.6282,-6.6257,-6.6277,-6.6369,-6.6455,-6.6466,-6.6446,-6.639,-6.6444,-6.645,-6.6404,-6.6576,-6.6513,-6.6533,-6.661,-6.6783,-6.6795,-6.6806,-6.6902,-6.6928,-6.695,0,0,0,0,0,0,-6.6261,-6.6285,-6.6258,-6.6383,-6.6418,-6.644,-6.6507,-6.6474,-6.6524,-6.6512,-6.6485,-6.6493,-6.6606,-6.6619,-6.6549,-6.675,-6.667,-6.6686,-6.6736,-6.6761,-6.678,-6.6773,-6.6461,0,0,0,0,0,-6.6297,-6.6364,-6.6381,-6.649,-6.6509,-6.6506,-6.6542,-6.6524,-6.6558,-6.6572,-6.6586,-6.662,-6.6682,-6.6723,-6.678,-6.6915,-6.692,-6.6977,-6.6997,-6.7013,-6.7026,-6.7099,-6.7124,-6.6851,-6.6851,-6.6851,0,0,-6.6369,-6.6391,-6.6434,-6.6509,-6.6534,-6.6604,-6.6518,-6.6596,-6.6648,-6.6584,-6.6684,-6.6697,-6.6734,-6.6855,-6.6909,-6.6869,-6.7104,-6.7028,-6.7041,-6.7045,-6.7114,-6.7139,-6.7162,-6.686,-6.6858,-6.6857,0,0,-6.6536,-6.6561,-6.6654,-6.6681,-6.6721,-6.6718,-6.6741,-6.677,-6.6776,-6.6878,-6.6831,-6.6893,-6.7,-6.7028,-6.7057,-6.7241,-6.72,-6.726,-6.7361,-6.7432,-6.7453,-6.7472,-6.7536,-6.7559,-6.7274,-6.7275,-6.7275,0,-6.6621,-6.6725,-6.6706,-6.6787,-6.6822,-6.677,-6.6864,-6.6892,-6.6948,-6.6972,-6.6928,-6.7062,-6.7084,-6.7211,-6.7256,-6.7282,-6.7306,-6.7254,-6.7452,-6.7471,-6.7488,-6.7549,-6.7573,-6.7282,-6.7281,-6.728,-6.7279,0,-6.6827,-6.6901,-6.6971,-6.7028,-6.7071,-6.7159,-6.7152,-6.7199,-6.7179,-6.7182,-6.7287,-6.7312,-6.7373,-6.7403,-6.7384,-6.7529,-6.7503,-6.7456,-6.7374,-6.7521,-6.7577,-6.7601,-6.7291,-6.7289,-6.7287,-6.7285,0,0,-6.7049,-6.7097,-6.7123,-6.7149,-6.7191,-6.7247,-6.7334,-6.7396,-6.7435,-6.7477,-6.7548,-6.7642,-6.76,-6.7633,-6.7617,-6.768,-6.7823,-6.7625,-6.7626,-6.7659,-6.7983,-6.8015,-6.8043,-6.7799,-6.7803,-6.7806,-6.7979,0,-6.7215,-6.7365,-6.7352,-6.7494,-6.7561,-6.7516,-6.7591,-6.7626,-6.7632,-6.7691,-6.7697,-6.7764,-6.7704,-6.7723,-6.7784,-6.7792,-6.7887,-6.778,-6.7863,-6.7866,-6.7851,-6.8072,-6.8106,-6.8268,-6.8001,-6.8005,-6.8008,0,-6.7428,-6.7479,-6.7628,-6.7662,-6.769,-6.7758,-6.7814,-6.7871,-6.791,-6.791,-6.795,-6.7924,-6.8011,-6.7932,-6.8052,-6.798,-6.8014,-6.8024,-6.8029,-6.8033,-6.7943,-6.8079,-6.8319,-6.8342,-6.8043,-6.804,-6.8038,0,-6.7572,-6.7679,-6.7782,-6.7806,-6.7848,-6.7897,-6.7917,-6.7951,-6.799,-6.804,-6.8065,-6.8125,-6.8157,-6.8204,-6.8195,-6.8139,-6.8318,-6.8237,-6.8319,-6.8319,-6.8355,-6.8352,-6.86,-6.8383,-6.8383,-6.8382,-6.8382,0,-6.7757,-6.785,-6.7847,-6.791,-6.8013,-6.7999,-6.8101,-6.8115,-6.8147,-6.8211,-6.8177,-6.8239,-6.8226,-6.8288,-6.8282,-6.8382,-6.8397,-6.8399,-6.8396,-6.84,-6.84,-6.8419,-6.8406,-6.8388,-6.8387,-6.8386,-6.8385,0,-6.7933,-6.7936,-6.8045,-6.8078,-6.8089,-6.8163,-6.819,-6.825,-6.8256,-6.8339,-6.8357,-6.8366,-6.8437,-6.8435,-6.8515,-6.8512,-6.8634,-6.8619,-6.8621,-6.8616,-6.8697,-6.8689,-6.8964,-6.8998,-6.8762,-6.8764,-6.8766,0,-6.8049,-6.812,-6.8161,-6.8203,-6.8226,-6.8294,-6.8334,-6.8325,-6.8368,-6.8419,-6.8473,-6.8542,-6.8595,-6.8712,-6.8725,-6.8787,-6.8771,-6.8864,-6.878,-6.8783,-6.877,-6.8764,-6.8771,-6.8878,-6.8881,-6.8883,-6.8885,0,-6.8254,-6.8253,-6.8312,-6.8374,-6.8424,-6.8471,-6.8515,-6.8551,-6.8546,-6.8597,-6.867,-6.8712,-6.8796,-6.8864,-6.8925,-6.8945,-6.8914,-6.8913,-6.8934,-6.8937,-6.8934,-6.8935,-6.8662,-6.8905,-6.8903,-6.8901,-6.89,-6.8899,-6.8402,-6.8462,-6.8502,-6.857,-6.8603,-6.8645,-6.8703,-6.8718,-6.8779,-6.8847,-6.8838,-6.892,-6.8959,-6.9038,-6.9064,-6.9128,-6.9095,-6.9127,-6.9134,-6.9142,-6.915,-6.8928,-6.9139,-6.9139,-6.9138,-6.9138,-6.9137,0,-6.8603,-6.8627,-6.869,-6.8753,-6.8808,-6.8778,-6.8826,-6.8872,-6.8945,-6.8985,-6.904,-6.9125,-6.9193,-6.9213,-6.9278,-6.9325,-6.9313,-6.9342,-6.9337,-6.9342,-6.9176,-6.915,-6.9351,-6.9351,-6.9351,-6.9351,-6.9351,-6.9351,-6.8713,-6.8814,-6.8819,-6.8936,-6.896,-6.904,-6.907,-6.911,-6.9142,-6.9238,-6.9295,-6.9309,-6.9341,-6.9409,-6.947,-6.9474,-6.9498,-6.9533,-6.9531,-6.9375,-6.9353,-6.9333,-6.9308,-6.9539,-6.9539,-6.9691,-6.9693,-6.9694]},{"header":{"parameterUnit":"m.s-1","parameterCategory":1,"la1":30.2991,"la2":30.254,"lo1":-89.0895,"lo2":-89.0444,"dy":0.0017,"dx":0.0017,"nx":28,"ny":28,"refTime":"2023-10-24T03:00:00:Z","depth":0,"parameterNumber":3,"parameterNumberName":"V-component_of_WINDS"},"data":[0,0,0,0,0,0,0,0,0,0,0,0,0,0,0,0,0,0,0,0,0,0,0,0,0,0,0,0,0,0,0,0,0,0,0,0,0,0,0,0,0,0,0,0,0,0,0,0,0,0,0,0,0,0,0,0,0,0,2.3417,2.3417,0,2.3486,2.3487,2.3487,2.3506,2.3506,2.3505,2.3505,2.3574,2.3576,2.3578,0,0,0,0,0,0,0,0,0,0,0,0,0,2.33,2.3302,2.3416,2.3417,2.3418,2.3486,2.3487,2.3488,2.3506,2.3506,2.3505,2.3505,2.3573,2.3575,2.3578,0,0,0,0,0,0,0,0,0,0,0,0,0,2.3358,2.3303,2.3416,2.3436,2.3438,2.3486,2.3487,2.3488,2.3506,2.3506,2.3505,2.3505,2.3572,2.3575,2.3578,2.3611,0,0,2.3588,2.359,0,0,0,0,0,0,0,0,2.3355,2.3362,2.3432,2.3435,2.3437,2.3487,2.3471,2.3529,2.3507,2.348,2.3505,2.3504,2.3545,2.355,2.3565,2.3614,2.3617,2.3589,2.3591,2.3592,2.3593,0,0,0,0,0,0,0,2.3351,2.336,2.3444,2.3433,2.3436,2.3441,2.3449,2.3482,2.3515,2.3483,2.3484,2.3492,2.3546,2.3562,2.3566,2.3618,2.3589,2.3592,2.3594,2.3595,2.37,2.3701,0,0,0,0,0,0,2.3344,2.3356,2.3442,2.3446,2.3394,2.3444,2.3452,2.3471,2.3515,2.3521,2.3493,2.3493,2.3556,2.3563,2.3569,2.3611,2.3592,2.3595,2.3597,2.3699,2.37,2.3701,0,0,0,0,0,0,2.3341,2.3351,2.3439,2.3402,2.3413,2.3446,2.3468,2.3473,2.3488,2.3523,2.3528,2.3502,2.3556,2.3564,2.3601,2.3614,2.3597,2.36,2.3698,2.3699,2.37,2.3695,0,0,0,0,0,0,2.3338,2.335,2.3362,2.3402,2.3415,2.347,2.3469,2.3475,2.3494,2.3495,2.3533,2.3538,2.3556,2.3596,2.3604,2.3618,2.3602,2.3697,2.3699,2.37,2.3694,2.3695,2.3697,0,0,0,0,0,2.3333,2.3357,2.3363,2.3373,2.3431,2.347,2.3478,2.3498,2.3495,2.3508,2.3531,2.3537,2.3611,2.36,2.3609,2.3624,2.3696,2.3698,2.37,2.3693,2.3695,2.3697,0,0,0,0,0,0,2.3316,2.3362,2.3369,2.3406,2.3435,2.3473,2.349,2.3499,2.3528,2.3528,2.3552,2.356,2.3595,2.3613,2.36,2.3659,2.3654,2.3658,2.3645,2.3648,2.3649,2.3644,2.3605,0,0,0,0,0,2.3317,2.3346,2.3384,2.3413,2.3427,2.3456,2.3474,2.3488,2.3517,2.3529,2.3554,2.3582,2.3612,2.3631,2.366,2.3697,2.3706,2.3712,2.3714,2.3715,2.3718,2.374,2.3744,2.3707,2.3707,2.3707,0,0,2.3319,2.3347,2.3363,2.341,2.3434,2.3463,2.3466,2.3496,2.3518,2.3533,2.357,2.359,2.3623,2.366,2.3678,2.3676,2.373,2.3717,2.3718,2.372,2.3743,2.3746,2.3749,2.3708,2.3708,2.3708,0,0,2.3336,2.336,2.3388,2.3412,2.3449,2.3468,2.3475,2.3514,2.3528,2.3565,2.3579,2.3605,2.3655,2.3679,2.3698,2.3728,2.3736,2.3737,2.3745,2.3767,2.377,2.3772,2.3784,2.3788,2.374,2.374,2.374,0,2.3333,2.3377,2.3401,2.3431,2.3452,2.347,2.3498,2.3521,2.3564,2.3578,2.3576,2.3642,2.3665,2.3709,2.3717,2.3731,2.374,2.3732,2.3767,2.377,2.3773,2.3785,2.3789,2.374,2.374,2.374,2.374,0,2.3372,2.3403,2.3421,2.3465,2.3488,2.3517,2.3545,2.3566,2.3579,2.3599,2.3638,2.3668,2.3704,2.3716,2.3727,2.3763,2.3761,2.3763,2.3758,2.3776,2.3788,2.3792,2.374,2.374,2.374,2.374,0,0,2.3378,2.3437,2.3443,2.3465,2.3507,2.3532,2.3563,2.36,2.3618,2.3648,2.3675,2.3719,2.3722,2.3743,2.3758,2.3777,2.3801,2.3778,2.3779,2.3781,2.3843,2.3841,2.3846,2.3807,2.3808,2.3809,2.3841,0,2.3402,2.3458,2.3482,2.3527,2.3557,2.3576,2.3603,2.3633,2.3653,2.3681,2.3704,2.3735,2.3737,2.375,2.377,2.3794,2.3814,2.3792,2.3833,2.3834,2.3823,2.3852,2.3849,2.3877,2.3845,2.3846,2.3846,0,2.3436,2.3468,2.3517,2.3559,2.3572,2.3596,2.3634,2.366,2.3695,2.3709,2.3734,2.3749,2.3783,2.3777,2.3825,2.3809,2.3828,2.3842,2.3844,2.3848,2.3841,2.3857,2.3887,2.3891,2.3853,2.3853,2.3852,0,2.3436,2.3492,2.353,2.3547,2.3596,2.3613,2.3634,2.3668,2.369,2.3723,2.3737,2.3773,2.3792,2.382,2.3844,2.3838,2.389,2.3886,2.3903,2.3902,2.3912,2.3911,2.3945,2.3924,2.3924,2.3924,2.3923,0,2.346,2.3489,2.3531,2.3553,2.3588,2.3615,2.3648,2.3671,2.3701,2.3729,2.3748,2.3773,2.3804,2.3834,2.3853,2.389,2.3899,2.3911,2.3916,2.3909,2.3908,2.3921,2.392,2.3925,2.3925,2.3924,2.3924,0,2.3465,2.3495,2.3537,2.3581,2.3593,2.3616,2.3654,2.3678,2.37,2.3736,2.3745,2.3781,2.3817,2.3845,2.3891,2.3904,2.3944,2.3949,2.3933,2.3935,2.395,2.3949,2.3994,2.4002,2.3975,2.3976,2.3976,0,2.3478,2.3502,2.3549,2.357,2.3592,2.3624,2.3648,2.3676,2.3699,2.3742,2.3761,2.3799,2.3831,2.3888,2.3918,2.3954,2.396,2.3974,2.3965,2.3959,2.3961,2.3959,2.3962,2.3975,2.3975,2.3975,2.3975,0,2.3498,2.3512,2.3545,2.3584,2.3611,2.3643,2.3675,2.369,2.3725,2.375,2.3789,2.3814,2.3863,2.3901,2.3941,2.3963,2.3975,2.3978,2.3984,2.3977,2.3967,2.3973,2.3936,2.3976,2.3976,2.3976,2.3976,2.3976,2.3508,2.3531,2.3569,2.3605,2.3633,2.3663,2.3688,2.3715,2.3748,2.3791,2.3806,2.3846,2.3882,2.3937,2.396,2.3992,2.3992,2.4,2.4002,2.4004,2.4003,2.3962,2.3999,2.3999,2.3999,2.3999,2.3999,0,2.3529,2.3556,2.3589,2.3635,2.3664,2.3675,2.3711,2.3735,2.377,2.3803,2.3835,2.3881,2.3918,2.3952,2.3991,2.401,2.4017,2.402,2.4018,2.4023,2.4001,2.3992,2.4014,2.4014,2.4014,2.4014,2.4014,2.4014,2.3544,2.3583,2.3603,2.3656,2.3682,2.3723,2.3743,2.3771,2.3798,2.3848,2.388,2.3902,2.3937,2.3979,2.4014,2.4023,2.4037,2.4038,2.4049,2.4027,2.4025,2.4023,2.4015,2.4041,2.4041,2.4069,2.4069,2.4069]}]]